Regional Weather Roundup
Issued by NWS

Home | Current Version | Previous Version | Graphics & Text | Print | Product List | Glossary On
Versions: 1 2 3 4 5 6 7 8 9 10 11 12 13 14 15 16 17 18 19 20 21 22 23 24 25 26 27
000
ASUS45 KTFX 190210
RWRMT
MONTANA REGIONAL WEATHER ROUNDUP
NATIONAL WEATHER SERVICE GREAT FALLS MT
800 PM MDT FRI AUG 18 2017

NOTE: "FAIR" INDICATES FEW OR NO CLOUDS BELOW 12000 FEET WITH NO
SIGNIFICANT WEATHER AND/OR OBSTRUCTIONS TO VISIBILITY.

MTZ001>007-043-190300-
WEST OF THE DIVIDE

CITY           SKY/WX    TMP DP  RH WIND       PRES   REMARKS
KALISPELL      MOCLDY    82  36  19 W12G24    29.89R
MISSOULA       PTCLDY    82  33  17 NW12      29.96R
BUTTE          CLEAR     79  22  12 NW8       30.08F
MULLAN PASS    PTCLDY    64  29  26 SW8       30.15F
ANACONDA         N/A     79  23  12 W12G17    30.04F
DEER LODGE       N/A     73  34  23 W7        30.04S
EUREKA           N/A     82  37  20 MISG      29.88S
HAMILTON         N/A     82  28  14 W3        29.99S
LIBBY            N/A     82  36  18 CALM      29.89S
PLAINS           N/A     82  42  24 SW6       29.93
RONAN            N/A     77  49  37 E1        29.99R
$$

MTZ008-052>055-190300-
SOUTHWEST MONTANA

CITY           SKY/WX    TMP DP  RH WIND       PRES   REMARKS
BOZEMAN        CLEAR     77  36  22 SE6       29.98F
DILLON         CLEAR     71  33  24 W9        30.04S
W YELLOWSTONE  CLEAR     72  32  23 SW10      30.20S
ENNIS          CLEAR     79  30  17 SW3       30.10S
$$

MTZ009-010-012-014-046-048-049-054-190300-
EAST SLOPES AND CENTRAL MONTANA

CITY           SKY/WX    TMP DP  RH WIND       PRES   REMARKS
CUT BANK       CLOUDY    80  29  15 W22       29.86F
GREAT FALLS    CLOUDY    78  28  16 SW12      29.88F HAZE
MALMSTROM AFB  MOCLDY    80  29  15 SW12      29.87F
HELENA         CLOUDY    81  29  15 W7        29.94S HAZE
AUGUSTA          N/A     80  24  12 W14       29.94S
BOWMANS CRNR     N/A     75  28  17 SW10      29.93S
CHOTEAU          N/A     82  27  13 W12G18    29.91S
CONRAD           N/A     80  35  19 W2        29.91S
FAIRFIELD        N/A     80  25  13 W13       29.89S
POWER            N/A     77  27  15 SW12      29.88S
RAYNESFORD       N/A     79  24  13 SW9       29.92S
ULM            CLOUDY    76  26  16 W13       29.89F
$$

MTZ011-013-016-021-045-047-050-051-190300-
NORTH CENTRAL MONTANA

CITY           SKY/WX    TMP DP  RH WIND       PRES   REMARKS
HAVRE          CLEAR     81  33  17 SW9       29.77F
LEWISTOWN      CLEAR     77  30  17 CALM      29.93F
N BAR RANCH      N/A     77  30  18 W5        29.98R
CHINOOK          N/A     82  37  20 CALM      29.76F
DENTON           N/A     82  25  12 W7        29.85S
GEYSER           N/A     80  24  12 W13       29.91S
GRASS RANGE      N/A     77  27  15 W10       29.88S
JUDITH GAP       N/A     78  32  18 S5        29.97S
WINIFRED         N/A     82  27  13 NE8       29.87F
$$

MTZ017>020-022>027-061-062-190300-
NORTHEAST MONTANA

CITY           SKY/WX    TMP DP  RH WIND       PRES   REMARKS
GLASGOW        CLEAR     79  35  20 SE10      29.79F
JORDAN           N/A     84  32  15 W5        29.82S
SIDNEY         CLEAR     75  54  47 NE3       29.84F
WOLF POINT     CLEAR     81  43  26 SE5       29.80F
MALTA          CLEAR     81  41  24 SW6       29.77F
PLENTYWOOD       N/A     77  46  33 CALM      29.84F
POPLAR           N/A     79  45  29 SE6       29.81F
SCOBEY           N/A     78  41  26 CALM      29.83
$$

MTZ028>42-056>058-190300-
SOUTHCENTRAL AND SOUTHEAST MONTANA

CITY           SKY/WX    TMP DP  RH WIND       PRES   REMARKS
BAKER          CLEAR     79  40  24 E3        29.90F
BILLINGS       CLEAR     84  18   8 NW8       29.90F
LIVINGSTON     CLEAR     77  35  21 SW6       29.98F
MILES CITY     CLEAR     86  34  15 S5        29.84F
BIG TIMBER     CLEAR     79  23  12 W8        29.99S
EKALAKA          N/A     78  35  21 S6        29.93
HARLOWTON        N/A     78  29  16 MISG      29.95F
LAUREL           N/A     83  29  14 CALM      29.92R
$$

REGIONAL REPORTS...DAKOTAS

CITY           SKY/WX    TMP DP  RH WIND       PRES   REMARKS
WILLISTON      CLEAR     74  54  49 SE3       29.85F
MINOT          CLEAR     75  51  43 CALM      29.85F
DICKINSON      CLEAR     69  53  56 E9        29.89F
BEACH            N/A     72  46  40 E12       29.92S HAZE
CROSBY           N/A     72  50  46 S8        29.85S
TIOGA            N/A     68  54  60 S8        29.89S
WATFORD CITY     N/A     72  52  49 E5        29.87S
BISMARCK       CLEAR     67  60  78 S6        29.91S
GRAND FORKS    PTCLDY    70  62  76 SW7       29.83S
FARGO          CLEAR     67  60  78 S7        29.87S
BUFFALO SD       N/A     77  46  33 E12       29.87F
RAPID CITY     CLEAR     72  47  40 SE3       29.98S
$$

REGIONAL REPORTS...WYOMING/IDAHO/WASHINGTON

CITY           SKY/WX    TMP DP  RH WIND       PRES   REMARKS
GILLETTE       CLEAR     77  34  21 NE7       30.00R
SHERIDAN       CLEAR     72  48  42 CALM      29.96S
BUFFALO WY     CLEAR     80  32  17 CALM      30.05S
CODY           CLEAR     81  35  19 CALM      30.05R
YELLOWSTONE LA   N/A     63  32  31 VRB3      30.31S
IDAHO FALLS    CLEAR     80  33  18 S12       30.08F
SALMON         MOCLDY    77  40  26 N7        29.98S
BOISE          CLEAR     88  27  11 N8        29.97F
SPOKANE        MOCLDY    83  37  19 W15       29.95S
$$

REGIONAL REPORTS...ALBERTA

CITY           SKY/WX    TMP DP  RH WIND       PRES   REMARKS
EDMONTON       LGT RAIN  63  52  67 NW5       29.76R
CALGARY        PTCLDY    79  34  19 NW12      29.74S
LETHBRIDGE     MOCLDY    81  37  21 W15G22    29.75S
MEDICINE HAT   MOCLDY    81  43  26 W12       29.70R
$$

REGIONAL REPORTS...SASKATCHEWAN

CITY           SKY/WX    TMP DP  RH WIND       PRES   REMARKS
SWIFT CURRENT  MOCLDY    77  43  29 SW9       29.72F
REGINA         PTCLDY    72  43  35 SE9       29.77F
SASKATOON      PTCLDY    70  52  52 E9        29.73F
$$




USA.gov is the U.S. government's official web portal to all federal, state and local government web resources and services.